This is the latest recevied weather packets stored in our database for station/object K0QJ. If no packets are shown the sender has not sent any weather packets the latest 10 day(s).
| Time | Temp. | Humidity | Pressure | Rain* | Wind** | Luminosity | Snow |
|---|---|---|---|---|---|---|---|
| 1778043438 | 8.89° C | 76% | 1014.3 hPa | 0 mm | - | 0 W/m² | - |
| 1778043135 | 8.89° C | 76% | 1014 hPa | 0 mm | - | 0 W/m² | - |
| 1778042832 | 8.89° C | 75% | 1013.8 hPa | 0 mm | - | 0 W/m² | - |
| 1778042530 | 8.89° C | 74% | 1014.1 hPa | 0 mm | - | 0 W/m² | - |
| 1778042227 | 9.44° C | 75% | 1013.9 hPa | 0 mm | - | 0 W/m² | - |
| 1778041925 | 9.44° C | 73% | 1014.1 hPa | 0 mm | - | 0 W/m² | - |
| 1778041624 | 10° C | 73% | 1013.8 hPa | 0 mm | - | 0 W/m² | - |
| 1778041321 | 10° C | 70% | 1013.9 hPa | 0 mm | - | 0 W/m² | - |
| 1778041020 | 10° C | 72% | 1013.8 hPa | 0 mm | - | 0 W/m² | - |
| 1778040716 | 10.56° C | 76% | 1013.9 hPa | 0 mm | - | 0 W/m² | - |
| 1778040414 | 10.56° C | 75% | 1013.2 hPa | 0 mm | - | 0 W/m² | - |
| 1778040110 | 10° C | 77% | 1013.1 hPa | 0 mm | - | 0 W/m² | - |
| 1778039807 | 10° C | 78% | 1013.1 hPa | 0 mm | - | 0 W/m² | - |
| 1778039504 | 10° C | 78% | 1013.3 hPa | 0 mm | - | 0 W/m² | - |
| 1778039201 | 10° C | 78% | 1013.4 hPa | 0 mm | - | 0 W/m² | - |
| 1778038898 | 10° C | 77% | 1013 hPa | 0 mm | - | 0 W/m² | - |
| 1778038595 | 10° C | 77% | 1013 hPa | 0 mm | - | 0 W/m² | - |
| 1778038292 | 10° C | 78% | 1012.7 hPa | 0 mm | - | 0 W/m² | - |
| 1778037989 | 10° C | 79% | 1012.4 hPa | 0 mm | - | 0 W/m² | - |
| 1778037686 | 10.56° C | 79% | 1012.7 hPa | 0 mm | - | 0 W/m² | - |
| 1778037383 | 10.56° C | 80% | 1012.7 hPa | 0 mm | - | 0 W/m² | - |
| 1778037080 | 10.56° C | 82% | 1012.5 hPa | 0 mm | - | 0 W/m² | - |
| 1778036778 | 10.56° C | 83% | 1012.2 hPa | 0 mm | - | 0 W/m² | - |
| 1778036475 | 10° C | 87% | 1012.2 hPa | 0 mm | - | 0 W/m² | - |
| 1778036172 | 10° C | 90% | 1012.1 hPa | 0 mm | - | 0 W/m² | - |
* Rain latest hour (hover to see other rain measurements)
** Current wind speed in m/s (hover to see current wind gust speed)